Current Version              Previous Version:    01  02  03  04  05  06  07  08  09  10  11  12  13  14  15  16  17  18  19  20  21  22  23  24  25  26  27  28  29  30  
   31  32  33  34  35  36  37  38  39  40  41  42  43  44  45  46  47  48  49  50  51  52  53  54  55  56  57  58  59  60  

[Printable]
379
ASUS44 KFWD 210801
RWRTX
NORTH TEXAS HOURLY WEATHER ROUNDUP
NATIONAL WEATHER SERVICE FORT WORTH TX
300 AM CDT TUE OCT 21 2014

NOTE: "FAIR" INDICATES FEW OR NO CLOUDS BELOW 12,000 FEET WITH NO
SIGNIFICANT WEATHER AND/OR OBSTRUCTIONS TO VISIBILITY.

TXZ118-119-210900-
DALLAS/FORT WORTH METROPLEX

CITY           SKY/WX    TMP DP  RH WIND       PRES   REMARKS
DFW AIRPORT    CLEAR     63  58  83 CALM      30.04S
DALLAS LOVE    PTCLDY    63  58  83 CALM      30.04S
FTW MEACHAM    CLEAR     63  57  81 CALM      30.04S
DAL-EXECUTIVE  CLEAR     61  56  83 CALM      30.04S
FTW-ALLIANCE   PTCLDY    60  57  89 CALM      30.04S
FTW-NAS-JRB    CLEAR     67  57  70 CALM      30.08S
ARLINGTON      CLEAR     57  53  86 CALM      30.04S
GRAND PRAIRIE  CLEAR     64  58  81 CALM      30.05F
ADDISON        CLEAR     65  59  82 SE3       30.06S
MESQUITE       CLEAR     58  55  92 CALM      30.04S
LANCASTER      CLEAR     56  53  89 CALM      30.05F
$$

TXZ091>094-102>105-117-120-121-131>134-210900-
NORTH CENTRAL TEXAS

CITY           SKY/WX    TMP DP  RH WIND       PRES   REMARKS
SHRMAN/DENISON CLEAR     63  60  91 CALM      30.06S
GAINESVILLE    CLEAR     61  58  91 MISG      30.07S
BRIDGEPORT     CLEAR     61  58  88 CALM      30.07S
DECATUR        CLEAR     66  56  71 S7        30.06S
DENTON         CLEAR     60  58  92 CALM      30.04S FOG
MCKINNEY       CLEAR     59  57  93 CALM      30.04F
ROCKWALL       CLEAR     62  56  80 S5        30.04S
TERRELL        CLEAR     58  54  86 CALM      30.05S
WAXAHACHIE     CLEAR     58  58 100 CALM      30.05F
CLEBURNE       CLEAR     61  61 100 CALM      30.06F
GRANBURY       CLEAR     60  56  88 CALM      30.06S
$$

TXZ083>090-098>101-113>116-127>130-139>142-154-155-210900-
WESTERN NORTH TEXAS

CITY           SKY/WX    TMP DP  RH WIND       PRES   REMARKS
WICHITA FALLS  CLEAR     61  56  83 S8        30.04S
WF-KICKAPOO    CLEAR     62  57  84 SW5       30.06S
VERNON         CLEAR     64  55  72 S5        30.06S
ABILENE        CLEAR     63  55  75 S7        30.08R
ABILENE-DYESS  CLEAR     60  54  80 S6        30.06S
MINERAL WELLS  CLEAR     60  57  89 CALM      30.04S FOG
STEPHENVILLE   CLEAR     60  55  85 CALM      30.09S
COMANCHE       PTCLDY    60  58  92 SE3       30.07S
COLEMAN        CLEAR     61  56  84 CALM      30.08S
$$

TXZ143>147-156>162-174-175-210900-
CENTRAL TEXAS

CITY           SKY/WX    TMP DP  RH WIND       PRES   REMARKS
WACO           CLEAR     59  57  93 CALM      30.04S
WACO-MCGREGOR  PTCLDY    57  52  82 CALM      30.05S
CORSICANA      CLEAR     60  57  89 CALM      30.05S FOG
MEXIA          CLEAR     60  58  91 CALM      30.04S
HEARNE         PTCLDY    60  58  94 CALM      30.04S
TEMPLE         CLEAR     61  54  77 CALM      30.04S
KILLEEN        PTCLDY    64  57  77 CALM      30.04F
KILLEEN-SKYLRK CLEAR     59  52  77 CALM      30.03S
FORT HOOD      CLEAR     62  59  90 CALM      30.04F
GATESVILLE     CLEAR     59  57  94 CALM      30.07S
HAMILTON       PTCLDY    62  57  85 SE6       30.07S
LAMPASAS       CLEAR     58  56  94 CALM      30.04F
$$

TXZ095>097-106>112-122>126-135>138-148>153-164>167-210900-
EAST TEXAS

CITY           SKY/WX    TMP DP  RH WIND       PRES   REMARKS
PARIS          CLEAR     61  54  77 CALM      30.06S
SULPHUR SPRNGS   N/A     60  57  89 CALM      30.07S
MOUNT PLEASANT   N/A     57  57  99 CALM      30.06S
MINEOLA        CLEAR     55  55 100 CALM      30.05F FOG
TYLER          CLEAR     60  54  80 CALM      30.04F
LONGVIEW       CLEAR     56  53  90 CALM      30.03F
MARSHALL       CLEAR     57  55  92 CALM      30.06S
ATHENS         CLEAR     54  54 100 CALM      30.04S
PALESTINE      CLEAR     57  56  95 CALM      30.05S
JACKSONVILLE   PTCLDY    62  53  72 CALM      30.06S
HENDERSON      CLEAR     53  53 100 CALM      30.05F
NACOGDOCHES    CLEAR     50  48  93 CALM      30.04F
LUFKIN         CLEAR     56  51  84 CALM      30.03S
$$

SUPPLEMENTAL OBSERVATIONS (CENTRAL)

CITY           SKY/WX    TMP DP  RH WIND       PRES   REMARKS
$$

SUPPLEMENTAL OBSERVATIONS (WEST)

CITY           SKY/WX    TMP DP  RH WIND       PRES   REMARKS
$$

SUPPLEMENTAL OBSERVATIONS (EAST)

CITY           SKY/WX    TMP DP  RH WIND       PRES   REMARKS
$$

SUPPLEMENTAL OBSERVATIONS ARE A COLLECTION OF AUTOMATED INSTRUMENTS
THAT ARE MAINTAINED BY A VARIETY OF FEDERAL AND STATE AGENCIES.
CERTAIN ELEMENTS...SUCH AS HUMIDITY VALUES AND SUSTAINED WIND
SPEEDS...MAY BE APPROXIMATED.